Location: Baia Mare
(47.6567°N, 23.5850°E)
Time: 17:46:03
(UTC+02:00)

ISS - Pass Details

Date: 10 February 2018
Orbit: 403 x 407 km, 51.6° (Epoch: 21 February)

Event Time Altitude Azimuth Distance (km) Brightness Sun altitude
Rises 19:42:24 0° 288° (WNW) 2,321 1.4 -20.9°
Reaches altitude 10° 19:44:47 10° 272° (W) 1,458 0.2 -21.3°
Maximum altitude 19:47:20 21° 220° (SW) 960 -1.6 -21.8°
Enters shadow 19:48:14 19° 196° (SSW) 1,034 -1.7 -21.9°
